RH
31 24 27 25 26 23 22 23 22 22 22 20 21 20 19 18 17 16 16 17 17 18 19 21 22 23 24 26 26 26 27 26 26 27 27 28 29 30 35 35 36 37 39
21 20 25 24 24 23 22 22 22 23 24 24 24 23 23 23 22 20 19 18 18 19 19 20 20 21 21 22 23 24 25 26 26 28 29 29 31 34 36 37 38 39 41
17 17 22 23 22 20 22 21 21 22 24 25 26 25 25 25 23 23 21 19 18 18 18 19 20 20 20 21 22 23 25 26 27 29 30 30 33 35 37 37 40 39 42
15 15 17 19 19 19 19 19 20 22 23 24 25 25 25 25 26 26 24 22 21 20 19 19 19 20 20 20 21 23 25 29 31 34 34 34 35 35 38 38 40 40 42
15 16 17 18 18 19 19 18 19 20 21 22 23 24 24 26 27 28 28 26 25 24 22 20 19 20 20 20 21 23 27 31 32 33 37 38 38 38 35 37 38 39 41
17 17 17 18 19 19 19 19 20 20 20 21 22 22 24 26 28 28 30 29 27 25 24 23 21 20 20 20 21 23 28 31 33 34 38 40 40 38 38 36 39 37 38
19 19 19 20 19 19 20 20 21 22 23 24 23 23 24 26 28 29 29 30 30 28 26 25 23 22 22 21 22 25 30 33 33 36 39 42 43 43 41 36 37 39 37
23 24 21 21 22 23 23 23 24 24 25 26 26 26 28 29 30 31 31 32 33 32 30 28 26 26 25 24 25 28 32 36 36 37 41 42 47 46 43 41 37 40 38
24 25 24 24 24 24 24 25 26 26 27 28 28 28 30 32 34 34 35 36 35 36 36 33 30 29 28 28 29 29 34 38 40 42 44 43 46 46 44 42 41 40 41
29 31 32 32 30 28 27 27 27 28 29 30 29 30 32 34 36 36 36 37 38 39 38 38 34 33 32 33 33 32 35 39 41 44 48 47 47 51 48 44 43 41 44
35 34 35 34 32 30 30 30 31 30 30 31 31 31 33 35 37 38 38 39 38 40 41 42 41 37 36 37 36 37 39 44 47 47 51 54 53 54 52 50 44 44 42
38 37 40 42 44 45 46 46 41 33 32 33 34 34 36 38 39 42 42 41 41 41 41 42 42 40 37 38 40 41 44 47 52 51 53 55 59 61 55 55 52 45 42
34 34 37 39 43 48 51 45 46 47 45 42 41 41 41 41 42 43 44 44 44 44 43 44 44 45 44 44 48 50 52 53 51 51 53 55 59 64 62 58 60 54 45
32 33 35 39 42 45 44 46 50 52 52 52 50 50 47 47 45 44 45 47 48 49 50 51 51 53 56 55 54 57 57 58 58 55 56 57 56 61 67 63 61 58 54
30 32 36 41 45 48 51 53 54 59 62 60 54 54 51 51 51 52 52 53 54 54 57 61 62 63 61 61 60 61 62 61 63 61 60 62 57 60 64 67 66 61 57
33 34 34 34 37 43 49 54 57 59 62 64 57 55 61 62 63 71 75 75 70 73 73 72 73 72 73 72 70 70 69 67 65 64 61 65 62 60 63 67 72 70 64
37 35 34 34 35 35 39 44 50 53 58 60 58 55 57 63 63 63 65 67 69 68 69 72 76 75 76 74 74 76 75 73 69 70 66 63 66 64 65 68 72 76 75
41 39 37 35 34 34 34 36 41 45 53 55 53 54 54 53 54 57 60 64 69 74 73 70 72 73 74 74 72 74 75 74 74 72 69 66 66 70 69 68 70 75 77
43 43 38 35 34 34 34 35 35 36 37 40 44 44 44 45 50 49 49 54 58 64 67 72 75 75 78 78 81 80 79 77 73 75 74 70 67 67 69 71 73 74 74
45 44 39 36 35 35 35 35 35 35 35 35 34 33 33 33 33 35 37 40 44 48 55 67 70 70 71 72 79 82 84 83 80 77 77 76 74 75 74 72 75 76 76
45 43 39 37 35 36 35 35 34 34 33 32 32 32 32 31 31 31 30 30 31 32 38 44 58 69 71 72 73 76 79 81 83 80 80 75 72 76 77 74 76 78 78
45 44 41 38 38 39 38 37 38 37 35 34 33 32 30 29 28 27 26 28 29 31 32 34 39 52 65 72 78 77 75 79 74 82 82 79 77 79 87 86 83 82 80
50 47 46 44 45 44 42 40 38 36 33 31 28 25 24 22 20 21 21 20 24 28 32 33 34 37 49 62 86 95 86 71 79 86 84 86 86 84 88 89 90 89 84
53 52 51 48 47 45 42 39 34 27 23 18 16 14 12 11 10 12 14 14 20 27 29 34 37 38 39 46 58 69 88 89 98 88 83 91 92 83 86 96 94 98 94
55 56 53 52 49 44 39 31 27 20 18 18 18 15 12 10 9 9 10 11 13 25 34 40 44 44 46 49 55 67 80 78 97 85 97 95 93 85 86 88 99 94 90
54 52 53 54 50 43 34 26 20 20 21 19 16 12 10 9 9 10 13 16 16 16 26 34 46 52 61 57 55 67 72 81 82 82 88 95 82 93 93 99 89 89 93